Flag for Germany Weather past 2 weeks in Mörfelden-Walldorf, Hesse, Germany

Now
73 °F

Clear.


Feels Like: 74 °F
Forecast: 67 / 90 °F
Wind: 1 mph from North

Location: Frankfurt-M-Flughafen Airport

Current Time: Aug 30, 2015 at 10:40:49 PM

Latest Report: Aug 30, 2015 at 10:20 PM


Visibility: 10 mi

Pressure: 30.01 "Hg

Humidity: 78%

Dew point: 66 °F

Location of Mörfelden-WalldorfLocation

Historic Weather in Mörfelden-Walldorf — Graph

°F

Mörfelden-Walldorf temperature yesterday

Maximum temperature yesterday: 84 °F (at 4:20 PM)
Minimum temperature yesterday: 55 °F (at 1:50 AM)
Average temperature yesterday: 70 °F

Past Weeks' High & Low Weather Summary

 TemperatureHumidityPressure
High91 °F (Aug 30, 4:20 PM)100% (Aug 19, 5:20 AM)30.27 "Hg (Aug 19, 5:20 AM)
Low50 °F (Aug 19, 4:50 AM)21% (Aug 22, 3:20 PM)29.68 "Hg (Aug 23, 5:20 PM)
Average66 °F69%30.00 "Hg
* Reported Aug 15 9:20 PM — Aug 30 9:20 PM, Mörfelden-Walldorf, Weather by CustomWeather, © 2015

Note: Actual official high and low records may vary slightly from our data, if they occured in-between our weather recording intervals... More about our weather records

Advertising

Mörfelden-Walldorf weather history for previous 24 hours

 ConditionsComfort  
Time TempWeatherWind HumidityBarometerVisibility
9:20 PM
Sun, Aug 30
77 °FClear.1 mph65%30.01 "Hg10 mi
8:50 PM79 °FSunny.2 mph61%30.01 "Hg10 mi
8:20 PM81 °FSunny.3 mph62%29.98 "Hg10 mi
7:50 PM84 °FSunny.3 mph55%29.98 "Hg10 mi
7:20 PM88 °FSunny.3 mph49%29.98 "Hg10 mi
6:50 PM88 °FSunny.3 mph52%29.98 "Hg10 mi
6:20 PM90 °FPassing clouds.5 mph41%29.98 "HgN/A
5:50 PM91 °FPassing clouds.5 mph38%29.98 "HgN/A
5:20 PM91 °FPassing clouds.6 mph38%30.01 "HgN/A
4:50 PM90 °FPassing clouds.6 mph41%30.01 "HgN/A
4:20 PM91 °FSunny.5 mph36%30.01 "Hg10 mi
3:50 PM90 °FPassing clouds.7 mph38%30.01 "HgN/A
3:20 PM90 °FPassing clouds.6 mph41%30.04 "HgN/A
2:50 PM88 °FPassing clouds.10 mph40%30.04 "HgN/A
2:20 PM88 °FPassing clouds.8 mph43%30.04 "HgN/A
1:50 PM86 °FPassing clouds.8 mph46%30.04 "HgN/A
1:20 PM84 °FPassing clouds.9 mph51%30.07 "HgN/A
12:50 PM84 °FPassing clouds.7 mph55%30.07 "HgN/A
12:20 PM82 °FPassing clouds.6 mph62%30.07 "HgN/A
11:50 AM81 °FPassing clouds.6 mph62%30.07 "HgN/A
11:20 AM81 °FPassing clouds.6 mph66%30.07 "HgN/A
10:50 AM79 °FPassing clouds.3 mph65%30.07 "HgN/A
10:20 AM77 °FPassing clouds.8 mph74%30.09 "HgN/A
9:50 AM75 °FPassing clouds.3 mph78%30.09 "HgN/A
9:20 AM75 °FSunny.1 mph74%30.09 "Hg10 mi
8:50 AM73 °FPassing clouds.3 mph78%30.07 "HgN/A
8:20 AM72 °FSunny.2 mph78%30.07 "Hg10 mi
7:50 AM70 °FSunny.2 mph83%30.07 "Hg10 mi
7:20 AM68 °FPassing clouds.3 mph88%30.07 "HgN/A
6:50 AM68 °FClear.5 mph88%30.07 "Hg10 mi
6:20 AM68 °FClear.5 mph88%30.07 "Hg10 mi
5:50 AM70 °FPassing clouds.3 mph88%30.07 "HgN/A
5:20 AM70 °FClear.5 mph83%30.07 "Hg10 mi
4:50 AM70 °FClear.6 mph83%30.07 "Hg10 mi
4:20 AM72 °FClear.9 mph83%30.07 "Hg10 mi
3:50 AM70 °FClear.8 mph88%30.07 "Hg10 mi
3:20 AM72 °FClear.6 mph83%30.07 "Hg10 mi
2:50 AM72 °FClear.5 mph83%30.07 "Hg10 mi
2:20 AM72 °FPassing clouds.6 mph83%30.07 "HgN/A
1:50 AM72 °FClear.7 mph83%30.07 "Hg10 mi
1:20 AM73 °FClear.8 mph78%30.09 "Hg10 mi
12:50 AM73 °FClear.6 mph78%30.09 "Hg10 mi
12:20 AM73 °FClear.6 mph78%30.09 "Hg10 mi
11:50 PM
Sat, Aug 29
75 °FClear.9 mph74%30.09 "Hg10 mi
11:20 PM75 °FClear.7 mph74%30.09 "Hg10 mi
10:50 PM75 °FPassing clouds.7 mph74%30.09 "HgN/A
10:20 PM73 °FPassing clouds.7 mph78%30.09 "HgN/A
Weather by CustomWeather, © 2015

See weather overviewHow to use our weather pages